Location: Garshuizen
(53.3675°N, 6.7248°E)
Time: 07:38:30
(UTC+00:00)

Cosmos 1975 - Pass Details

Date: 15 May 2026
Orbit: 471 x 485 km, 82.5° (Epoch: 5 June)

Event Time Altitude Azimuth Distance (km) Brightness Sun altitude
Rises 23:27:05 0° 339° (NNW) 2,575 7.6 -17.6°
Reaches altitude 10° 23:29:28 10° 325° (NW) 1,687 6.1 -17.6°
Maximum altitude 23:32:28 24° 271° (W) 1,054 4.2 -17.6°
Enters shadow 23:33:32 21° 244° (WSW) 1,149 4.2 -17.6°
